Погода в Данвилле

США     36°35′09″N   79°23′43″W
темп.,
°C
ветер,
м/с
пор.,
м/с
влажн.,
%
обл.,
%
осадки,
мм/ч
давл.,
гПа
погр.,
м
19 апреля, пн
пн1923:00+13с1166100 0.0 101211
02:00+11с3785100 0.3 1012194
05:00+9с3894100 0.8 1011291
08:00+10с399155 1.2 1012483
11:00+11с3681100 0.6 1013614
14:00+14всв246530 1.4 10121087
17:00+18зсз044667 0.1 10111566
20:00+13з22635 0.1 101336
20 апреля, вт
вт2023:00+10зсз37755 0.0 1015137
02:00+9зсз23770 0.0 101662
05:00+8зсз23790 0.0 101749
08:00+11зюз127143 0.0 101885
11:00+18юз2344100 0.0 10181214
14:00+21юз463762 0.0 10162386
17:00+21юз573790 0.0 10132824
20:00+15сз236979 0.1 101376
21 апреля, ср
ср2123:00+14ю4146340 0.0 1013501
02:00+13ююз516782 0.1 1012612
05:00+12ююз313915 0.1 1010552
08:00+13з4118894 0.1 1011803
11:00+13сз794848 0.0 10141106
14:00+14сз79345 0.0 10141832
17:00+12сз710335 0.0 10152023
20:00+7сз594797 0.0 10191111
22 апреля, чт
чт2223:00+4сз39630 0.0 1021310
02:00+2зсз27722 0.0 1022181
05:00+1з25805 0.0 1023125
08:00+4з276979 0.0 1024313
11:00+11сз35332 0.0 10241724
14:00+14зсз3728100 0.0 10222858
17:00+14зсз4537100 0.0 10212082
20:00+9зсз1162100 0.0 102210
23 апреля, пт
пт2323:00+7ссз277097 0.1 1024145
02:00+4сз22771 0.1 102524
05:00+3сз11805 0.0 102610
08:00+6зсз11670 0.0 1027108
11:00+14юз01393 0.0 10271368
14:00+17ююз23315 0.0 10242008
17:00+18юз35315 0.0 10222298
20:00+11юз225828 0.0 102213